This demonstration page uses our WeatherBlox Daily Observations layout. Learn more.

Left ArrowRight Arrow

Hourly Observations for September 12, 2017

Temp ( °F °C ) Dew Point ( °F °C ) Humidity (%) Winds ( mph kmh ) Pressure ( in mb ) Visibility ( mi km ) Precip ( " mm )
12:54 am 00:54 Clear 65 18.3 58 14.4 78 78 SSE 5 7 30.06 1018 10 16.0934 0 0
1:54 am 01:54 Clear 65 18.3 57 13.9 76 76 Calm 30.05 1018 10 16.0934 0 0
2:54 am 02:54 Clear 59 15 56 13.3 90 90 Calm 30.04 1017 10 16.0934 0 0
3:54 am 03:54 Clear 59 15 55 12.8 87 87 Calm 30.04 1017 10 16.0934 0 0
4:54 am 04:54 Clear 59 15 55 12.8 87 87 Calm 30.04 1017 10 16.0934 0 0
5:54 am 05:54 Clear 56 13.3 54 12.2 93 93 N 3 6 30.04 1017 8 12.87472 0 0
6:54 am 06:54 Clear 56 13.3 54 12.2 93 93 Calm 30.04 1017 9 14.48406 0 0
7:54 am 07:54 Sunny 58 14.4 55 12.8 90 90 Calm 30.05 1018 7 11.26538 0 0
8:54 am 08:54 Sunny 64 17.8 57 13.9 78 78 Calm 30.04 1017 7 11.26538 0 0
9:54 am 09:54 Sunny 71 21.7 59 15 66 66 Calm 30.03 1017 9 14.48406 0 0
10:54 am 10:54 Sunny 76 24.4 59 15 56 56 Calm 30.02 1017 10 16.0934 0 0
11:54 am 11:54 Sunny 80 26.7 57 13.9 45 45 Calm 30 1016 10 16.0934 0 0
12:54 pm 12:54 Sunny 83 28.3 57 13.9 41 41 E 7 11 29.97 1015 10 16.0934 0 0
1:54 pm 13:54 Sunny 84 28.9 56 13.3 38 38 SE 10 17 29.95 1014 10 16.0934 0 0
2:54 pm 14:54 Sunny 84 28.9 56 13.3 38 38 Calm 29.93 1013 10 16.0934 0 0
3:54 pm 15:54 Sunny 84 28.9 57 13.9 40 40 SSE 6 9 29.9 1013 10 16.0934 0 0
4:54 pm 16:54 Sunny 84 28.9 59 15 43 43 S 6 9 29.88 1012 10 16.0934 0 0
5:54 pm 17:54 Sunny 83 28.3 59 15 44 44 S 6 9 29.88 1012 10 16.0934 0 0
6:54 pm 18:54 Sunny 78 25.6 60 15.6 54 54 S 7 11 29.87 1011 10 16.0934 0 0
7:54 pm 19:54 Clear 74 23.3 59 15 60 60 SSE 3 6 29.86 1011 10 16.0934 0 0
8:54 pm 20:54 Clear 75 23.9 59 15 58 58 Calm 29.85 1011 10 16.0934 0 0
9:54 pm 21:54 Clear 68 20 59 15 73 73 Calm 29.85 1011 10 16.0934 0 0
10:54 pm 22:54 Clear 65 18.3 59 15 81 81 Calm 29.84 1011 9 14.48406 0 0
11:54 pm 23:54 Clear 62 16.7 58 14.4 86 86 N 5 7 29.85 1011 8 12.87472 0 0

Powered by AerisWeather